[[{"header":{"parameterUnit":"m.s-1","parameterCategory":1,"la1":30.2992,"la2":30.254,"lo1":-89.0895,"lo2":-89.0443,"dy":0.0025,"dx":0.0025,"nx":19,"ny":19,"refTime":"2026-04-25T09:00:00:Z","depth":0,"parameterNumber":2,"parameterNumberName":"U-component_of_WINDS"},"data":[0,0,0,-1.0425,-1.0424,-1.0356,-1.0355,-1.0294,-1.0294,0,0,0,0,0,0,0,0,0,0,0,-1.0463,-1.0463,-1.0425,-1.0424,-1.0356,-1.0355,-1.0294,-1.0294,0,0,0,0,0,0,0,0,0,0,0,-1.0463,-1.0463,-1.0463,-1.0424,-1.0356,-1.0355,-1.0294,-1.0336,0,0,0,0,0,0,0,0,0,0,-1.0398,-1.045,-1.0463,-1.0463,-1.0423,-1.0356,-1.0355,-1.0338,-1.0333,-1.0337,0,-1.0346,0,-1.0319,-1.0291,-1.0291,0,0,0,-1.0411,-1.0453,-1.0419,-1.0463,-1.0423,-1.0356,-1.0383,-1.0335,-1.033,-1.0332,-1.0344,-1.0341,-1.0318,-1.0291,-1.0291,-1.0357,-1.0358,0,0,-1.0414,-1.0459,-1.0423,-1.0417,-1.0431,-1.0385,-1.0381,-1.0332,-1.0348,-1.0344,-1.0339,-1.0317,-1.0291,-1.0291,-1.0356,-1.0358,0,0,0,-1.0434,-1.0463,-1.0429,-1.0421,-1.0406,-1.0383,-1.0378,-1.035,-1.0336,-1.0338,-1.0316,-1.0291,-1.029,-1.0355,-1.0357,-1.0446,0,0,0,-1.0436,-1.0474,-1.0431,-1.0458,-1.0408,-1.0378,-1.0399,-1.0339,-1.0332,-1.0317,-1.0291,-1.029,-1.0354,-1.0356,-1.0442,-1.0481,0,0,0,-1.0461,-1.0477,-1.0473,-1.0461,-1.0433,-1.0377,-1.036,-1.0337,-1.0319,-1.0291,-1.029,-1.0354,-1.0356,-1.0437,-1.0474,-1.0511,0,0,0,-1.0501,-1.0553,-1.0475,-1.0525,-1.0434,-1.0434,-1.0359,-1.0357,-1.0344,-1.0291,-1.0354,-1.0357,-1.0436,-1.0469,-1.0507,-1.055,-1.0572,0,0,-1.0592,-1.0566,-1.0592,-1.052,-1.0545,-1.0441,-1.0479,-1.0424,-1.038,-1.0367,-1.0368,-1.0443,-1.0473,-1.051,-1.0684,-1.0703,0,0,0,-1.0636,-1.0655,-1.0652,-1.0642,-1.0602,-1.057,-1.0505,-1.0484,-1.0471,-1.0383,-1.0466,-1.0482,-1.0502,-1.052,-1.0536,-1.0549,-1.0367,-1.0367,-1.0367,-1.0828,-1.077,-1.0808,-1.0742,-1.0733,-1.0665,-1.0652,-1.0613,-1.0556,-1.0577,-1.0572,-1.0685,-1.0708,-1.072,-1.0735,-1.0591,-1.0591,-1.0591,-1.0592,-1.0955,-1.0972,-1.0896,-1.0906,-1.0844,-1.0851,-1.0788,-1.0748,-1.0744,-1.0683,-1.0698,-1.0636,-1.0741,-1.0751,-1.0598,-1.0597,-1.0596,-1.0595,-1.0595,-1.1074,-1.1071,-1.1047,-1.1026,-1.1017,-1.0948,-1.0949,-1.0892,-1.0838,-1.0852,-1.0841,-1.0839,-1.0829,-1.0851,-1.0852,-1.0852,-1.0852,-1.0853,-1.0853,-1.1206,-1.1175,-1.1183,-1.1146,-1.1132,-1.1106,-1.104,-1.1024,-1.0992,-1.095,-1.0949,-1.089,-1.0763,-1.0732,-1.0859,-1.0858,-1.0857,-1.0856,-1.0856,-1.1354,-1.1312,-1.1325,-1.1311,-1.1262,-1.1257,-1.1185,-1.1158,-1.1136,-1.1139,-1.1076,-1.0992,-1.0961,-1.0948,-1.0922,-1.109,-1.109,-1.109,-1.109,-1.1453,-1.1433,-1.1433,-1.1415,-1.139,-1.1327,-1.1342,-1.1291,-1.1231,-1.1214,-1.1181,-1.1142,-1.1132,-1.1106,-1.109,-1.1064,-1.1264,-1.1265,-1.1265,-1.1541,-1.1515,-1.1539,-1.1482,-1.1439,-1.1404,-1.1416,-1.1398,-1.1321,-1.1271,-1.1199,-1.1191,-1.1127,-1.1109,-1.1057,-1.1033,-1.0985,0,0]},{"header":{"parameterUnit":"m.s-1","parameterCategory":1,"la1":30.2992,"la2":30.254,"lo1":-89.0895,"lo2":-89.0443,"dy":0.0025,"dx":0.0025,"nx":19,"ny":19,"refTime":"2026-04-25T09:00:00:Z","depth":0,"parameterNumber":3,"parameterNumberName":"V-component_of_WINDS"},"data":[0,0,0,2.5157,2.5155,2.5059,2.5059,2.493,2.4929,0,0,0,0,0,0,0,0,0,0,0,2.5183,2.5182,2.5157,2.5154,2.506,2.5059,2.493,2.4929,0,0,0,0,0,0,0,0,0,0,0,2.5184,2.5183,2.5182,2.5154,2.506,2.5059,2.4931,2.5004,0,0,0,0,0,0,0,0,0,0,2.5098,2.5121,2.5183,2.5182,2.5154,2.506,2.5059,2.5008,2.5,2.4971,0,2.4948,0,2.4937,2.492,2.492,0,0,0,2.5155,2.5128,2.5104,2.5181,2.5153,2.506,2.5102,2.5003,2.4994,2.496,2.4946,2.4941,2.4935,2.4919,2.4919,2.476,2.4759,0,0,2.516,2.5165,2.5111,2.5098,2.5116,2.5105,2.5099,2.4998,2.4982,2.4946,2.4938,2.4932,2.4919,2.4918,2.476,2.4759,0,0,0,2.5175,2.5168,2.5147,2.5104,2.5087,2.5103,2.5096,2.4986,2.4979,2.4937,2.4931,2.4918,2.4916,2.4761,2.476,2.4729,0,0,0,2.5178,2.5177,2.5149,2.5151,2.5089,2.5036,2.5086,2.4986,2.4974,2.4932,2.4918,2.4915,2.4762,2.4761,2.4731,2.4712,0,0,0,2.519,2.5178,2.5164,2.5151,2.5111,2.5038,2.5025,2.4983,2.497,2.492,2.4915,2.4763,2.4761,2.4734,2.4716,2.4673,0,0,0,2.5203,2.5136,2.5164,2.5086,2.5112,2.502,2.5025,2.4955,2.4908,2.4917,2.4762,2.476,2.4734,2.4719,2.4675,2.4637,2.4622,0,0,2.5121,2.5126,2.508,2.5103,2.5007,2.5034,2.4932,2.4883,2.4872,2.4797,2.4793,2.473,2.4717,2.4673,2.4534,2.4522,0,0,0,2.5056,2.5023,2.4996,2.4953,2.4916,2.4881,2.4848,2.4829,2.4766,2.4836,2.4702,2.4694,2.4668,2.465,2.4639,2.4617,2.4752,2.4752,2.4752,2.4945,2.4938,2.4861,2.4842,2.4799,2.4766,2.473,2.4699,2.4702,2.467,2.4648,2.4565,2.4543,2.4536,2.4512,2.4627,2.4627,2.4627,2.4627,2.4824,2.4777,2.4784,2.4712,2.4703,2.4642,2.4606,2.461,2.455,2.458,2.4557,2.4592,2.4523,2.4502,2.4624,2.4625,2.4625,2.4625,2.4625,2.4752,2.4728,2.4709,2.4646,2.4597,2.4578,2.4521,2.4514,2.4507,2.4484,2.446,2.4461,2.446,2.4473,2.4473,2.4473,2.4472,2.4472,2.4472,2.4685,2.4664,2.4619,2.4574,2.4545,2.4506,2.4472,2.4442,2.4408,2.4407,2.4407,2.4412,2.4518,2.4545,2.4467,2.4468,2.4469,2.4469,2.447,2.4567,2.4593,2.4522,2.4494,2.444,2.4392,2.4384,2.4325,2.43,2.4271,2.4282,2.4361,2.4365,2.4373,2.4395,2.4284,2.4284,2.4284,2.4284,2.4506,2.4508,2.4435,2.439,2.4345,2.4331,2.4249,2.422,2.4194,2.4178,2.4193,2.4221,2.423,2.4229,2.424,2.4261,2.4118,2.4118,2.4117,2.4433,2.443,2.4364,2.4342,2.4299,2.4262,2.4185,2.4131,2.4106,2.4111,2.4164,2.4171,2.4218,2.4233,2.424,2.4257,2.4295,0,0]}]]